TimeCST,TemperatureF,Dew PointF,Humidity,Sea Level PressureIn,VisibilityMPH,Wind Direction,Wind SpeedMPH,Gust SpeedMPH,PrecipitationIn,Events,Conditions,WindDirDegrees,DateUTC
12:12 AM,42.3,34.9,75,30.16,10.0,ENE,4.6,-,N/A,,Unknown,70,2012-11-05 06:12:00
12:32 AM,42.3,34.9,75,30.16,10.0,NE,4.6,-,N/A,,Unknown,50,2012-11-05 06:32:00
12:52 AM,42.3,34.7,75,30.16,10.0,Calm,Calm,-,N/A,,Overcast,0,2012-11-05 06:52:00
1:12 AM,42.3,34.5,74,30.16,10.0,Calm,Calm,-,N/A,,Overcast,0,2012-11-05 07:12:00
1:32 AM,42.3,34.0,72,30.16,10.0,East,3.5,-,N/A,,Overcast,80,2012-11-05 07:32:00
1:52 AM,42.3,34.0,72,30.16,10.0,Calm,Calm,-,N/A,,Overcast,0,2012-11-05 07:52:00
2:12 AM,42.3,34.2,73,30.16,10.0,Calm,Calm,-,N/A,,Overcast,0,2012-11-05 08:12:00
2:32 AM,41.9,34.2,74,30.17,10.0,Calm,Calm,-,N/A,,Overcast,0,2012-11-05 08:32:00
2:52 AM,41.5,34.2,75,30.16,10.0,Calm,Calm,-,N/A,,Overcast,0,2012-11-05 08:52:00
3:12 AM,41.2,34.2,76,30.16,10.0,ENE,3.5,-,N/A,,Light Drizzle,70,2012-11-05 09:12:00
3:32 AM,41.0,33.3,74,30.17,10.0,East,3.5,-,N/A,,Unknown,80,2012-11-05 09:32:00
3:52 AM,41.0,32.9,73,30.17,10.0,ENE,3.5,-,N/A,,Unknown,70,2012-11-05 09:52:00
4:12 AM,40.6,32.4,72,30.17,10.0,ENE,4.6,-,N/A,,Mostly Cloudy,70,2012-11-05 10:12:00
4:32 AM,40.1,32.0,73,30.17,10.0,ENE,3.5,-,N/A,,Unknown,60,2012-11-05 10:32:00
4:52 AM,39.7,31.6,73,30.17,10.0,ENE,4.6,-,N/A,,Unknown,70,2012-11-05 10:52:00
5:12 AM,39.6,31.1,72,30.17,10.0,ENE,4.6,-,N/A,,Unknown,70,2012-11-05 11:12:00
5:32 AM,39.6,30.9,71,30.17,10.0,East,4.6,-,N/A,,Unknown,80,2012-11-05 11:32:00
5:52 AM,39.4,30.7,71,30.18,10.0,East,4.6,-,N/A,,Unknown,80,2012-11-05 11:52:00
6:12 AM,39.4,30.9,72,30.18,10.0,ENE,3.5,-,N/A,,Unknown,70,2012-11-05 12:12:00
6:32 AM,39.0,31.1,73,30.18,10.0,Calm,Calm,-,N/A,,Unknown,0,2012-11-05 12:32:00
6:52 AM,38.8,30.9,73,30.18,10.0,ENE,3.5,-,N/A,,Unknown,60,2012-11-05 12:52:00
7:12 AM,38.7,30.2,72,30.18,10.0,ENE,4.6,-,N/A,,Unknown,70,2012-11-05 13:12:00
7:32 AM,38.7,30.2,72,30.19,10.0,East,3.5,-,N/A,,Unknown,80,2012-11-05 13:32:00
7:52 AM,38.8,30.2,71,30.19,10.0,East,3.5,-,N/A,,Unknown,90,2012-11-05 13:52:00
8:12 AM,38.8,29.8,70,30.19,10.0,East,3.5,-,N/A,,Unknown,90,2012-11-05 14:12:00
8:32 AM,38.8,29.8,70,30.19,10.0,East,3.5,-,N/A,,Unknown,100,2012-11-05 14:32:00
8:52 AM,39.2,29.8,69,30.19,10.0,East,4.6,-,N/A,,Unknown,100,2012-11-05 14:52:00
9:12 AM,39.2,30.0,70,30.19,10.0,Calm,Calm,-,N/A,,Unknown,0,2012-11-05 15:12:00
9:32 AM,39.6,30.2,69,30.20,10.0,Calm,Calm,-,N/A,,Unknown,0,2012-11-05 15:32:00
9:52 AM,39.6,29.7,68,30.20,10.0,SE,4.6,-,N/A,,Unknown,130,2012-11-05 15:52:00
10:12 AM,40.1,30.0,67,30.20,10.0,SE,3.5,-,N/A,,Unknown,130,2012-11-05 16:12:00
10:32 AM,40.1,30.0,67,30.20,10.0,SE,4.6,-,N/A,,Mostly Cloudy,130,2012-11-05 16:32:00
10:52 AM,40.5,30.2,67,30.20,10.0,SSE,4.6,-,N/A,,Mostly Cloudy,150,2012-11-05 16:52:00
11:12 AM,40.6,30.2,66,30.20,10.0,ESE,4.6,-,N/A,,Mostly Cloudy,120,2012-11-05 17:12:00
11:32 AM,41.0,30.6,66,30.19,10.0,SE,3.5,-,N/A,,Mostly Cloudy,140,2012-11-05 17:32:00
11:52 AM,41.2,30.9,67,30.19,10.0,Calm,Calm,-,N/A,,Mostly Cloudy,0,2012-11-05 17:52:00
12:12 PM,41.7,31.3,66,30.17,10.0,SSE,3.5,-,N/A,,Mostly Cloudy,160,2012-11-05 18:12:00
12:32 PM,41.9,31.3,66,30.16,10.0,SE,4.6,-,N/A,,Scattered Clouds,140,2012-11-05 18:32:00
12:52 PM,41.9,31.3,66,30.16,10.0,ESE,4.6,-,N/A,,Scattered Clouds,120,2012-11-05 18:52:00
1:12 PM,42.4,31.6,66,30.15,10.0,SE,3.5,-,N/A,,Scattered Clouds,140,2012-11-05 19:12:00
1:32 PM,42.4,31.8,66,30.15,10.0,SSE,4.6,-,N/A,,Mostly Cloudy,160,2012-11-05 19:32:00
1:52 PM,42.8,32.0,66,30.15,10.0,SSE,4.6,-,N/A,,Overcast,160,2012-11-05 19:52:00
2:12 PM,42.8,32.0,66,30.14,10.0,Calm,Calm,-,N/A,,Mostly Cloudy,0,2012-11-05 20:12:00
2:32 PM,42.8,32.0,66,30.13,10.0,SSE,4.6,-,N/A,,Mostly Cloudy,150,2012-11-05 20:32:00
2:52 PM,42.8,32.0,66,30.13,10.0,SSE,4.6,-,N/A,,Overcast,150,2012-11-05 20:52:00
3:12 PM,42.8,32.2,66,30.12,10.0,Calm,Calm,-,N/A,,Mostly Cloudy,0,2012-11-05 21:12:00
3:52 PM,43.0,32.5,67,30.11,10.0,SSE,3.5,-,N/A,,Overcast,150,2012-11-05 21:52:00
4:12 PM,43.0,32.5,67,30.11,10.0,Calm,Calm,-,N/A,,Overcast,0,2012-11-05 22:12:00
4:32 PM,43.0,32.5,67,30.11,10.0,SE,3.5,-,N/A,,Overcast,140,2012-11-05 22:32:00
4:52 PM,42.8,32.5,67,30.10,10.0,SSE,3.5,-,N/A,,Overcast,150,2012-11-05 22:52:00
5:12 PM,42.8,32.4,67,30.10,10.0,SSE,3.5,-,N/A,,Overcast,160,2012-11-05 23:12:00
5:32 PM,42.8,32.5,67,30.09,10.0,SE,3.5,-,N/A,,Overcast,140,2012-11-05 23:32:00
5:52 PM,42.8,32.9,68,30.09,10.0,SSE,3.5,-,N/A,,Overcast,150,2012-11-05 23:52:00
6:12 PM,42.8,33.1,69,30.09,10.0,SSE,3.5,-,N/A,,Overcast,160,2012-11-06 00:12:00
6:32 PM,43.0,33.3,69,30.08,10.0,SSE,4.6,-,N/A,,Overcast,160,2012-11-06 00:32:00
6:52 PM,43.3,33.8,69,30.07,10.0,SSE,4.6,-,N/A,,Overcast,160,2012-11-06 00:52:00
7:12 PM,43.5,33.8,69,30.06,10.0,SSE,5.8,-,N/A,,Overcast,160,2012-11-06 01:12:00
7:32 PM,43.5,34.2,70,30.05,10.0,South,3.5,-,N/A,,Overcast,170,2012-11-06 01:32:00
7:52 PM,43.3,34.5,71,30.05,10.0,Calm,Calm,-,N/A,,Overcast,0,2012-11-06 01:52:00
8:12 PM,43.7,35.1,72,30.05,7.0,SSE,3.5,-,N/A,,Overcast,160,2012-11-06 02:12:00
8:32 PM,43.7,35.4,73,30.04,7.0,South,5.8,-,N/A,,Overcast,190,2012-11-06 02:32:00
8:52 PM,43.9,35.1,71,30.03,7.0,South,9.2,-,N/A,,Overcast,190,2012-11-06 02:52:00
9:12 PM,43.9,34.7,70,30.02,10.0,SSW,10.4,-,N/A,,Overcast,200,2012-11-06 03:12:00
9:32 PM,44.2,34.0,67,30.01,10.0,SSW,10.4,17.3,N/A,,Overcast,200,2012-11-06 03:32:00
9:52 PM,44.2,34.2,68,30.00,10.0,SSW,12.7,17.3,N/A,,Overcast,200,2012-11-06 03:52:00
10:12 PM,44.2,34.2,68,29.99,10.0,South,10.4,-,N/A,,Overcast,190,2012-11-06 04:12:00
10:32 PM,44.1,34.2,68,29.98,10.0,South,10.4,18.4,N/A,,Overcast,190,2012-11-06 04:32:00
10:52 PM,44.1,34.3,69,29.96,10.0,SSW,9.2,18.4,N/A,,Overcast,200,2012-11-06 04:52:00
11:12 PM,44.1,34.7,70,29.95,10.0,South,10.4,20.7,N/A,,Overcast,190,2012-11-06 05:12:00
11:32 PM,43.9,34.7,70,29.95,10.0,SSW,13.8,17.3,N/A,,Overcast,200,2012-11-06 05:32:00
11:52 PM,43.7,35.1,72,29.94,7.0,South,9.2,19.6,N/A,,Overcast,190,2012-11-06 05:52:00